Location: Dilsberg
(49.3983°N, 8.8354°E)
Time: 07:00:19
(UTC+00:00)

Cosmos 2154 Rocket - Pass Details

Date: 19 May 2025
Orbit: 965 x 996 km, 82.9° (Epoch: 14 June)

Event Time Altitude Azimuth Distance (km) Brightness Sun altitude
Rises 19:49:28 0° 350° (N) 3,667 7.9 -6.3°
Reaches altitude 10° 19:51:59 10° 350° (N) 2,716 7.2 -6.6°
Maximum altitude 19:58:13 88° 261° (W) 974 4.1 -7.3°
Drops below altitude 10° 20:04:25 10° 174° (S) 2,704 5.9 -8.1°
Enters shadow 20:06:35 - 174° (S) 3,527 6.5 -8.3°
